Park Rapids, MN

1:37 AM CST on December 18, 2017 (GMT -0600)
Park Rapids Municipal

Weather History for KPKD - October, 2013

Change the Weather History Date:

Tuesday, October 22, 2013

  Actual Average Record
Temperature  
Mean Temperature 30 °F -  
Max Temperature 37 °F 54 °F 78 °F (1992)
Min Temperature 24 °F 33 °F 12 °F (1976)
Degree Days  
Heating Degree Days 34    
Moisture  
Dew Point 28 °F    
Average Humidity 86    
Maximum Humidity 100    
Minimum Humidity 70    
Precipitation  
Precipitation 0.00 in - - ()
Sea Level Pressure  
Sea Level Pressure 30.02 in    
Wind  
Wind Speed 7 mph (NW)    
Max Wind Speed 12 mph    
Max Gust Speed 17 mph    
Visibility 8 miles    
Events Snow    
Averages and records for this station are not official NWS values.
T = Trace of Precipitation, MM = Missing Value Source: NWS Daily Summary

Daily Weather History Graph

Daily Weather History Graph

Search for Another Location

Airport or City:

Trip Planner

Search our weather history database for the weather conditions in past years. The results will help you decide how hot, cold, wet, or windy it might be!

Date:

Astronomy

Oct. 22, 2013 Rise Set
Actual Time 7:48 AM CDT 6:20 PM CDT
Civil Twilight 7:17 AM CDT 6:51 PM CDT
Nautical Twilight 6:42 AM CDT 7:26 PM CDT
Astronomical Twilight 6:06 AM CDT 8:01 PM CDT
Moon 8:51 PM CDT (10/22) 11:27 AM CDT (10/22)
Length of Visible Light 11h 33m
Length of Day
10h 31m
Waning Gibbous, 86% of the Moon is Illuminated
Oct 22
Waning Gibbous
Oct 26
Last Quarter
Nov 3
New
Nov 9
First Quarter
Nov 17
Full

Hourly Weather History & Observations

Time (CDT) Temp. Windchill Dew Point Humidity Pressure Visibility Wind Dir Wind Speed Gust Speed Precip Events Conditions
12:53 AM 32.0 °F 24.2 °F 27.0 °F 82% 29.99 in 10.0 mi NNW 9.2 mph - N/A   Overcast
1:53 AM 32.0 °F 25.6 °F 27.0 °F 82% 29.99 in 10.0 mi NNW 6.9 mph - N/A   Overcast
2:32 AM 28.4 °F 22.2 °F 24.8 °F 86% 29.94 in 10.0 mi WNW 5.8 mph - N/A   Scattered Clouds
2:53 AM 27.0 °F 21.6 °F 25.0 °F 92% 30.00 in 10.0 mi WNW 4.6 mph - N/A   Clear
3:53 AM 27.0 °F 19.5 °F 25.0 °F 92% 30.00 in 10.0 mi WNW 6.9 mph - N/A   Mostly Cloudy
4:53 AM 27.0 °F 19.5 °F 26.1 °F 96% 30.00 in 10.0 mi NW 6.9 mph - N/A   Mostly Cloudy
5:53 AM 24.1 °F 17.0 °F 24.1 °F 100% 30.01 in 10.0 mi NW 5.8 mph - N/A   Clear
6:53 AM 24.1 °F 19.7 °F 23.0 °F 96% 30.03 in 10.0 mi WNW 3.5 mph - N/A   Partly Cloudy
7:11 AM 26.6 °F - 24.8 °F 93% 29.96 in 10.0 mi Calm Calm - N/A   Partly Cloudy
7:53 AM 25.0 °F 20.7 °F 25.0 °F 100% 30.04 in 10.0 mi West 3.5 mph - N/A   Mostly Cloudy
8:53 AM 30.0 °F - 28.9 °F 96% 30.05 in 10.0 mi Calm Calm - N/A   Overcast
9:08 AM 30.2 °F 26.7 °F 28.4 °F 93% 29.99 in 10.0 mi WNW 3.5 mph - N/A   Overcast
9:53 AM 32.0 °F 24.2 °F 30.0 °F 92% 30.05 in 10.0 mi NNW 9.2 mph - N/A   Overcast
10:53 AM 34.0 °F 26.6 °F 28.9 °F 82% 30.06 in 10.0 mi NW 9.2 mph - N/A   Overcast
11:53 AM 35.1 °F 27.9 °F 28.0 °F 76% 30.06 in 10.0 mi NNW 9.2 mph - N/A   Overcast
12:42 PM 35.6 °F 30.7 °F 30.2 °F 81% 30.00 in 2.5 mi NNW 5.8 mph - 0.00 in Snow Light Snow
12:49 PM 35.6 °F 28.6 °F 30.2 °F 81% 30.00 in 9.0 mi NNW 9.2 mph - 0.00 in   Overcast
12:53 PM 35.1 °F 27.9 °F 28.9 °F 78% 30.06 in 10.0 mi NNW 9.2 mph - 0.00 in   Overcast
1:44 PM 33.8 °F 25.8 °F 30.2 °F 87% 30.00 in 2.5 mi North 10.4 mph - 0.00 in Snow Light Snow
1:53 PM 35.1 °F 28.6 °F 30.9 °F 85% 30.05 in 2.5 mi North 8.1 mph - 0.00 in Snow Light Snow
2:01 PM 35.6 °F 30.7 °F 30.2 °F 81% 29.99 in 6.0 mi North 5.8 mph - 0.00 in Snow Light Snow
2:39 PM 35.6 °F 28.0 °F 30.2 °F 81% 29.99 in 10.0 mi North 10.4 mph - 0.00 in   Overcast
2:53 PM 36.0 °F 29.0 °F 30.0 °F 79% 30.04 in 10.0 mi North 9.2 mph - 0.00 in   Overcast
3:05 PM 33.8 °F 27.7 °F 30.2 °F 87% 29.99 in 2.5 mi North 6.9 mph - 0.00 in Snow Light Snow
3:12 PM 35.6 °F 30.7 °F 30.2 °F 81% 29.99 in 3.0 mi North 5.8 mph - 0.00 in Snow Light Snow
3:53 PM 36.0 °F 33.3 °F 28.9 °F 76% 30.05 in 10.0 mi NW 3.5 mph - 0.00 in   Overcast
4:53 PM 37.0 °F 29.3 °F 28.0 °F 70% 30.05 in 10.0 mi WNW 11.5 mph - N/A   Mostly Cloudy
5:53 PM 34.0 °F 26.0 °F 28.0 °F 79% 30.06 in 10.0 mi NW 10.4 mph - N/A   Overcast
6:43 PM 32.0 °F 23.6 °F 28.4 °F 87% 30.01 in 1.8 mi NW 10.4 mph 17.3 mph 0.00 in Snow Light Snow
6:50 PM 33.8 °F 26.4 °F 28.4 °F 81% 30.00 in 2.0 mi NW 9.2 mph - 0.00 in Snow Light Snow
6:53 PM 33.1 °F 26.1 °F 28.9 °F 85% 30.06 in 4.0 mi NW 8.1 mph - 0.00 in Snow Light Snow
7:00 PM 33.8 °F 28.6 °F 28.4 °F 81% 30.00 in 9.0 mi WNW 5.8 mph - 0.00 in   Overcast
7:51 PM 33.8 °F 28.6 °F 30.2 °F 87% 30.01 in 10.0 mi WNW 5.8 mph - 0.00 in   Overcast
7:53 PM 33.1 °F 27.7 °F 28.9 °F 85% 30.07 in 10.0 mi WNW 5.8 mph - 0.00 in   Overcast
8:10 PM 33.8 °F 27.0 °F 28.4 °F 81% 30.01 in 10.0 mi WNW 8.1 mph - N/A   Overcast
8:53 PM 32.0 °F 25.6 °F 28.0 °F 85% 30.07 in 10.0 mi WNW 6.9 mph - N/A   Overcast
9:53 PM 32.0 °F 25.6 °F 28.0 °F 85% 30.07 in 10.0 mi WNW 6.9 mph - N/A   Overcast
10:53 PM 30.9 °F 25.2 °F 28.9 °F 92% 30.06 in 9.0 mi WNW 5.8 mph - 0.00 in Snow Light Snow
11:53 PM 30.9 °F 25.2 °F 28.9 °F 92% 30.05 in 10.0 mi WNW 5.8 mph - 0.00 in   Overcast